Regional Weather Roundup
Issued by NWS

Home | Current Version | Previous Version | Graphics & Text | Print | Product List | Glossary On
Versions: 1 2 3 4 5 6 7 8 9 10 11 12 13 14 15 16 17 18 19 20 21 22 23 24 25 26 27 28 29 30 31 32 33 34 35 36 37 38 39 40 41 42 43 44 45 46 47 48 49 50
000
ASUS43 KBIS 280310
RWRND
NORTH DAKOTA REGIONAL WEATHER ROUNDUP
NATIONAL WEATHER SERVICE EASTERN NORTH DAKOTA/GRAND FORKS ND
1000 PM CDT TUE JUN 27 2017

  NOTE: "FAIR" INDICATES FEW OR NO CLOUDS BELOW 12,000 FEET WITH NO
  SIGNIFICANT WEATHER AND/OR OBSTRUCTIONS TO VISIBILITY.

NDZ001>003-009>011-017-280400-
...NORTHWEST NORTH DAKOTA...

CITY           SKY/WX    TMP DP  RH WIND       PRES   REMARKS
WILLISTON      FAIR      72  55  55 N8        29.61R
MINOT          FAIR      75  62  64 N3        29.52R
MINOT AFB      FAIR      76  59  56 N13       29.52R
$$

NDZ018>021-031>035-040>046-280400-
...SOUTHWEST NORTH DAKOTA...

CITY           SKY/WX    TMP DP  RH WIND       PRES   REMARKS
BISMARCK       FAIR      67  65  93 NE9       29.50S THUNDER
DICKINSON      CLOUDY    74  50  42 NW16      29.59R
GARRISON         N/A     69  65  86 SE10      29.51R
HETTINGER      CLOUDY    74  49  41 NW7       29.62R
$$

NDZ004>008-012>016-024-026-027-054-280400-
...NORTHEAST NORTH DAKOTA...

CITY           SKY/WX    TMP DP  RH WIND       PRES   REMARKS
GRAND FORKS    FAIR      70  49  47 SE15      29.61F
GRAND FORKS AF FAIR      68  48  48 SE14      29.61S
DEVILS LAKE    FAIR      69  56  62 SE13      29.56F
$$

NDZ022-023-025-028>030-036>039-047>053-280400-
...SOUTHEAST NORTH DAKOTA...

CITY           SKY/WX    TMP DP  RH WIND       PRES   REMARKS
JAMESTOWN      CLOUDY    73  52  47 SE15      29.57S
FARGO          CLOUDY    70  51  51 SE17      29.63F
WAHPETON       MOCLDY    68  46  45 SE10      29.67R
$$



USA.gov is the U.S. government's official web portal to all federal, state and local government web resources and services.